Time,TemperatureF,DewpointF,PressureIn,WindDirection,WindDirectionDegrees,WindSpeedMPH,WindSpeedGustMPH,Humidity,HourlyPrecipIn,Conditions,Clouds,dailyrainin,SoftwareType,DateUTC
2013-01-23 00:02:00,13.0,2.0,30.43,West,265,1.0,4.0,61,0.00,,,0.00,,2013-01-23 06:02:00,
2013-01-23 00:12:00,13.0,2.0,30.43,West,265,1.0,4.0,61,0.00,,,0.00,,2013-01-23 06:12:00,
2013-01-23 00:22:00,13.0,2.0,30.43,West,261,0.0,4.0,62,0.00,,,0.00,,2013-01-23 06:22:00,
2013-01-23 00:32:00,12.0,2.0,30.42,West,262,1.0,3.0,64,0.00,,,0.00,,2013-01-23 06:32:00,
2013-01-23 00:42:00,12.0,2.0,30.42,West,262,1.0,3.0,64,0.00,,,0.00,,2013-01-23 06:42:00,
2013-01-23 00:52:00,12.0,3.0,30.42,West,272,0.0,3.0,65,0.00,,,0.00,,2013-01-23 06:52:00,
2013-01-23 01:02:00,12.0,3.0,30.42,West,271,0.0,1.0,66,0.00,,,0.00,,2013-01-23 07:02:00,
2013-01-23 01:12:00,12.0,3.0,30.42,West,271,0.0,1.0,66,0.00,,,0.00,,2013-01-23 07:12:00,
2013-01-23 01:22:00,11.0,2.0,30.41,West,272,0.0,1.0,66,0.00,,,0.00,,2013-01-23 07:22:00,
2013-01-23 01:33:00,11.0,2.0,30.41,West,272,0.0,1.0,67,0.00,,,0.00,,2013-01-23 07:33:00,
2013-01-23 01:42:00,11.0,2.0,30.41,West,272,0.0,1.0,67,0.00,,,0.00,,2013-01-23 07:42:00,
2013-01-23 01:52:00,11.0,2.0,30.41,West,272,0.0,0.0,67,0.00,,,0.00,,2013-01-23 07:52:00,
2013-01-23 02:02:00,10.0,3.0,30.41,West,272,0.0,0.0,71,0.00,,,0.00,,2013-01-23 08:02:00,
2013-01-23 02:13:00,10.0,3.0,30.41,West,272,0.0,0.0,71,0.00,,,0.00,,2013-01-23 08:13:00,
2013-01-23 02:22:00,10.0,3.0,30.41,West,272,0.0,1.0,72,0.00,,,0.00,,2013-01-23 08:22:00,
2013-01-23 02:33:00,9.0,2.0,30.41,West,272,0.0,0.0,73,0.00,,,0.00,,2013-01-23 08:33:00,
2013-01-23 02:42:00,9.0,2.0,30.41,West,272,0.0,0.0,73,0.00,,,0.00,,2013-01-23 08:42:00,
2013-01-23 02:52:00,10.0,3.0,30.40,West,272,0.0,1.0,74,0.00,,,0.00,,2013-01-23 08:52:00,
2013-01-23 03:03:00,10.0,4.0,30.40,West,271,0.0,2.0,76,0.00,,,0.00,,2013-01-23 09:03:00,
2013-01-23 03:12:00,10.0,4.0,30.40,West,271,0.0,2.0,76,0.00,,,0.00,,2013-01-23 09:12:00,
2013-01-23 03:22:00,12.0,5.0,30.41,WSW,254,2.0,7.0,74,0.00,,,0.00,,2013-01-23 09:22:00,
2013-01-23 03:32:00,13.0,5.0,30.40,SW,214,2.0,5.0,70,0.00,,,0.00,,2013-01-23 09:32:00,
2013-01-23 03:43:00,13.0,5.0,30.40,SW,214,2.0,5.0,70,0.00,,,0.00,,2013-01-23 09:43:00,
2013-01-23 03:52:00,13.0,4.0,30.39,WSW,238,1.0,4.0,68,0.00,,,0.00,,2013-01-23 09:52:00,
2013-01-23 04:03:00,13.0,4.0,30.39,WSW,238,1.0,4.0,68,0.00,,,0.00,,2013-01-23 10:03:00,
2013-01-23 04:12:00,13.0,4.0,30.39,WSW,238,1.0,4.0,68,0.00,,,0.00,,2013-01-23 10:12:00,
2013-01-23 04:23:00,13.0,4.0,30.38,SW,223,1.0,4.0,68,0.00,,,0.00,,2013-01-23 10:23:00,
2013-01-23 04:33:00,13.0,5.0,30.38,SW,235,1.0,3.0,69,0.00,,,0.00,,2013-01-23 10:33:00,
2013-01-23 04:43:00,13.0,5.0,30.38,SW,235,1.0,3.0,69,0.00,,,0.00,,2013-01-23 10:43:00,
2013-01-23 04:52:00,13.0,5.0,30.38,WSW,238,0.0,4.0,69,0.00,,,0.00,,2013-01-23 10:52:00,
2013-01-23 05:02:00,14.0,5.0,30.38,WSW,238,2.0,5.0,67,0.00,,,0.00,,2013-01-23 11:02:00,
2013-01-23 05:12:00,14.0,5.0,30.38,WSW,238,2.0,5.0,67,0.00,,,0.00,,2013-01-23 11:12:00,
2013-01-23 05:23:00,14.0,5.0,30.37,SW,235,2.0,6.0,67,0.00,,,0.00,,2013-01-23 11:23:00,
2013-01-23 05:33:00,14.0,5.0,30.37,WSW,238,1.0,4.0,67,0.00,,,0.00,,2013-01-23 11:33:00,
2013-01-23 05:43:00,14.0,5.0,30.37,WSW,238,1.0,4.0,67,0.00,,,0.00,,2013-01-23 11:43:00,
2013-01-23 05:53:00,14.0,4.0,30.37,SW,227,1.0,4.0,65,0.00,,,0.00,,2013-01-23 11:53:00,
2013-01-23 06:03:00,14.0,4.0,30.37,SW,226,2.0,5.0,65,0.00,,,0.00,,2013-01-23 12:03:00,
2013-01-23 06:12:00,14.0,4.0,30.37,SW,226,2.0,5.0,65,0.00,,,0.00,,2013-01-23 12:12:00,
2013-01-23 06:22:00,14.0,4.0,30.37,SW,216,0.0,4.0,65,0.00,,,0.00,,2013-01-23 12:22:00,
2013-01-23 06:33:00,14.0,4.0,30.36,SW,236,1.0,4.0,65,0.00,,,0.00,,2013-01-23 12:33:00,
2013-01-23 06:43:00,14.0,4.0,30.36,SW,236,1.0,4.0,65,0.00,,,0.00,,2013-01-23 12:43:00,
2013-01-23 06:53:00,14.0,4.0,30.36,SSW,198,3.0,6.0,64,0.00,,,0.00,,2013-01-23 12:53:00,
2013-01-23 07:03:00,14.0,4.0,30.35,SW,223,3.0,7.0,64,0.00,,,0.00,,2013-01-23 13:03:00,
2013-01-23 07:13:00,14.0,4.0,30.35,SW,223,3.0,7.0,64,0.00,,,0.00,,2013-01-23 13:13:00,
2013-01-23 07:23:00,14.0,4.0,30.35,SSW,209,2.0,6.0,64,0.00,,,0.00,,2013-01-23 13:23:00,
2013-01-23 07:33:00,15.0,5.0,30.36,SSW,209,2.0,6.0,64,0.00,,,0.00,,2013-01-23 13:33:00,
2013-01-23 07:42:00,15.0,5.0,30.36,SSW,209,2.0,6.0,64,0.00,,,0.00,,2013-01-23 13:42:00,
2013-01-23 07:52:00,15.0,5.0,30.35,SSW,213,2.0,7.0,63,0.00,,,0.00,,2013-01-23 13:52:00,
2013-01-23 08:03:00,15.0,4.0,30.35,SSW,198,4.0,6.0,62,0.00,,,0.00,,2013-01-23 14:03:00,
2013-01-23 08:12:00,15.0,4.0,30.35,SSW,198,4.0,6.0,62,0.00,,,0.00,,2013-01-23 14:12:00,
2013-01-23 08:23:00,15.0,5.0,30.34,SSW,213,4.0,7.0,63,0.00,,,0.00,,2013-01-23 14:23:00,
2013-01-23 08:33:00,15.0,5.0,30.34,SSW,201,5.0,7.0,63,0.00,,,0.00,,2013-01-23 14:33:00,
2013-01-23 08:43:00,15.0,5.0,30.34,SSW,201,5.0,7.0,63,0.00,,,0.00,,2013-01-23 14:43:00,
2013-01-23 08:53:00,15.0,5.0,30.34,SSW,196,4.0,7.0,64,0.00,,,0.00,,2013-01-23 14:53:00,
2013-01-23 09:03:00,16.0,5.0,30.34,SSW,207,5.0,7.0,61,0.00,,,0.00,,2013-01-23 15:03:00,
2013-01-23 09:12:00,16.0,5.0,30.34,SSW,207,5.0,7.0,61,0.00,,,0.00,,2013-01-23 15:12:00,
2013-01-23 09:23:00,16.0,5.0,30.35,SSW,196,6.0,8.0,62,0.00,,,0.00,,2013-01-23 15:23:00,
2013-01-23 09:33:00,16.0,5.0,30.35,SSW,213,4.0,8.0,62,0.00,,,0.00,,2013-01-23 15:33:00,
2013-01-23 09:43:00,16.0,5.0,30.35,SSW,213,4.0,8.0,62,0.00,,,0.00,,2013-01-23 15:43:00,
2013-01-23 09:53:00,17.0,6.0,30.35,SW,227,3.0,8.0,60,0.00,,,0.00,,2013-01-23 15:53:00,
2013-01-23 10:03:00,17.0,5.0,30.35,SSW,198,6.0,9.0,59,0.00,,,0.00,,2013-01-23 16:03:00,
2013-01-23 10:12:00,17.0,5.0,30.35,SSW,198,6.0,9.0,59,0.00,,,0.00,,2013-01-23 16:12:00,
2013-01-23 10:23:00,18.0,6.0,30.34,SSW,194,5.0,10.0,60,0.00,,,0.00,,2013-01-23 16:23:00,
2013-01-23 10:33:00,18.0,6.0,30.34,SW,227,6.0,10.0,59,0.00,,,0.00,,2013-01-23 16:33:00,
2013-01-23 10:42:00,18.0,6.0,30.34,SW,227,6.0,10.0,59,0.00,,,0.00,,2013-01-23 16:42:00,
2013-01-23 10:52:00,18.0,6.0,30.34,SSW,193,5.0,10.0,59,0.00,,,0.00,,2013-01-23 16:52:00,
2013-01-23 11:03:00,19.0,7.0,30.33,SSW,200,7.0,11.0,58,0.00,,,0.00,,2013-01-23 17:03:00,
2013-01-23 11:12:00,19.0,7.0,30.33,SSW,200,7.0,11.0,58,0.00,,,0.00,,2013-01-23 17:12:00,
2013-01-23 11:23:00,19.0,7.0,30.32,SSW,192,7.0,13.0,59,0.00,,,0.00,,2013-01-23 17:23:00,
2013-01-23 11:33:00,19.0,7.0,30.30,SSW,206,7.0,9.0,58,0.00,,,0.00,,2013-01-23 17:33:00,
2013-01-23 11:42:00,19.0,7.0,30.30,SSW,206,7.0,9.0,58,0.00,,,0.00,,2013-01-23 17:42:00,
2013-01-23 11:52:00,20.0,8.0,30.30,SSW,202,5.0,8.0,58,0.00,,,0.00,,2013-01-23 17:52:00,
2013-01-23 12:03:00,20.0,8.0,30.30,SSW,202,5.0,8.0,58,0.00,,,0.00,,2013-01-23 18:03:00,
2013-01-23 12:12:00,20.0,8.0,30.30,SSW,202,5.0,8.0,58,0.00,,,0.00,,2013-01-23 18:12:00,
2013-01-23 12:23:00,21.0,9.0,30.27,SSW,208,5.0,8.0,60,0.00,,,0.00,,2013-01-23 18:23:00,
2013-01-23 12:33:00,21.0,9.0,30.27,SSW,208,5.0,8.0,60,0.00,,,0.00,,2013-01-23 18:33:00,
2013-01-23 12:43:00,21.0,9.0,30.26,SSW,208,5.0,8.0,59,0.00,,,0.00,,2013-01-23 18:43:00,
2013-01-23 12:53:00,22.0,10.0,30.24,SW,226,5.0,10.0,59,0.00,,,0.00,,2013-01-23 18:53:00,
2013-01-23 13:03:00,22.0,10.0,30.24,SSW,205,4.0,9.0,59,0.00,,,0.00,,2013-01-23 19:03:00,
2013-01-23 13:13:00,22.0,10.0,30.24,SSW,205,4.0,9.0,59,0.00,,,0.00,,2013-01-23 19:13:00,
2013-01-23 13:23:00,23.0,11.0,30.23,WSW,238,3.0,8.0,60,0.00,,,0.00,,2013-01-23 19:23:00,
2013-01-23 13:33:00,23.0,11.0,30.22,SSW,195,4.0,9.0,59,0.00,,,0.00,,2013-01-23 19:33:00,
2013-01-23 13:43:00,23.0,11.0,30.22,SSW,195,4.0,9.0,59,0.00,,,0.00,,2013-01-23 19:43:00,
2013-01-23 13:53:00,24.0,12.0,30.21,SSW,212,4.0,9.0,60,0.00,,,0.00,,2013-01-23 19:53:00,
2013-01-23 14:03:00,24.0,12.0,30.20,South,187,3.0,7.0,60,0.00,,,0.00,,2013-01-23 20:03:00,
2013-01-23 14:13:00,24.0,12.0,30.20,South,187,3.0,7.0,60,0.00,,,0.00,,2013-01-23 20:13:00,
2013-01-23 14:23:00,25.0,13.0,30.19,SW,234,4.0,9.0,59,0.00,,,0.00,,2013-01-23 20:23:00,
2013-01-23 14:33:00,26.0,14.0,30.19,SSW,203,6.0,9.0,59,0.00,,,0.00,,2013-01-23 20:33:00,
2013-01-23 14:43:00,26.0,14.0,30.19,SSW,203,6.0,9.0,59,0.00,,,0.00,,2013-01-23 20:43:00,
2013-01-23 14:53:00,27.0,14.0,30.19,SW,230,5.0,12.0,58,0.00,,,0.00,,2013-01-23 20:53:00,
2013-01-23 15:03:00,29.0,15.0,30.17,SSW,213,4.0,8.0,56,0.00,,,0.00,,2013-01-23 21:03:00,
2013-01-23 15:12:00,29.0,15.0,30.17,SSW,213,4.0,8.0,56,0.00,,,0.00,,2013-01-23 21:12:00,
2013-01-23 15:23:00,29.0,15.0,30.17,SW,217,4.0,12.0,55,0.00,,,0.00,,2013-01-23 21:23:00,
2013-01-23 15:33:00,30.0,15.0,30.16,WSW,258,3.0,12.0,54,0.00,,,0.00,,2013-01-23 21:33:00,
2013-01-23 15:42:00,30.0,15.0,30.16,WSW,258,3.0,12.0,54,0.00,,,0.00,,2013-01-23 21:42:00,
2013-01-23 15:52:00,30.0,15.0,30.16,WSW,240,6.0,13.0,53,0.00,,,0.00,,2013-01-23 21:52:00,
2013-01-23 16:02:00,30.0,15.0,30.16,WSW,240,6.0,13.0,53,0.00,,,0.00,,2013-01-23 22:02:00,
2013-01-23 16:12:00,30.0,15.0,30.16,WSW,240,6.0,13.0,53,0.00,,,0.00,,2013-01-23 22:12:00,
2013-01-23 16:23:00,32.0,17.0,30.16,WSW,241,4.0,13.0,53,0.00,,,0.00,,2013-01-23 22:23:00,
2013-01-23 16:33:00,31.0,16.0,30.16,SW,234,5.0,13.0,53,0.00,,,0.00,,2013-01-23 22:33:00,
2013-01-23 16:42:00,31.0,16.0,30.16,SW,234,5.0,13.0,53,0.00,,,0.00,,2013-01-23 22:42:00,
2013-01-23 16:53:00,31.0,17.0,30.16,West,262,7.0,12.0,55,0.00,,,0.00,,2013-01-23 22:53:00,
2013-01-23 17:03:00,30.0,17.0,30.17,West,277,5.0,12.0,57,0.00,,,0.00,,2013-01-23 23:03:00,
2013-01-23 17:12:00,30.0,17.0,30.17,West,277,5.0,12.0,57,0.00,,,0.00,,2013-01-23 23:12:00,
2013-01-23 17:23:00,29.0,16.0,30.17,West,263,3.0,12.0,59,0.00,,,0.00,,2013-01-23 23:23:00,
2013-01-23 17:33:00,29.0,16.0,30.17,West,263,3.0,12.0,59,0.00,,,0.00,,2013-01-23 23:33:00,
2013-01-23 17:43:00,29.0,16.0,30.17,West,263,3.0,12.0,59,0.00,,,0.00,,2013-01-23 23:43:00,
2013-01-23 17:53:00,27.0,16.0,30.17,WSW,257,2.0,7.0,63,0.00,,,0.00,,2013-01-23 23:53:00,
2013-01-23 18:03:00,26.0,16.0,30.17,WNW,286,2.0,5.0,64,0.00,,,0.00,,2013-01-24 00:03:00,
2013-01-23 18:12:00,26.0,16.0,30.17,WNW,286,2.0,5.0,64,0.00,,,0.00,,2013-01-24 00:12:00,
2013-01-23 18:22:00,27.0,17.0,30.17,West,277,1.0,6.0,65,0.00,,,0.00,,2013-01-24 00:22:00,
2013-01-23 18:32:00,27.0,17.0,30.18,West,267,3.0,6.0,65,0.00,,,0.00,,2013-01-24 00:32:00,
2013-01-23 18:42:00,27.0,17.0,30.18,West,267,3.0,6.0,65,0.00,,,0.00,,2013-01-24 00:42:00,
2013-01-23 18:53:00,26.0,16.0,30.18,NW,317,2.0,11.0,65,0.00,,,0.00,,2013-01-24 00:53:00,
2013-01-23 19:03:00,26.0,16.0,30.19,WNW,294,4.0,12.0,66,0.00,,,0.00,,2013-01-24 01:03:00,
2013-01-23 19:12:00,26.0,16.0,30.19,WNW,294,4.0,12.0,66,0.00,,,0.00,,2013-01-24 01:12:00,
2013-01-23 19:23:00,25.0,16.0,30.20,WNW,283,4.0,11.0,68,0.00,,,0.00,,2013-01-24 01:23:00,
2013-01-23 19:33:00,25.0,16.0,30.20,WNW,283,4.0,11.0,68,0.00,,,0.00,,2013-01-24 01:33:00,
2013-01-23 19:42:00,25.0,16.0,30.20,WNW,283,4.0,11.0,68,0.00,,,0.00,,2013-01-24 01:42:00,
2013-01-23 19:52:00,24.0,17.0,30.21,NNW,330,4.0,8.0,73,0.00,,,0.00,,2013-01-24 01:52:00,
2013-01-23 20:02:00,23.0,16.0,30.23,NW,308,2.0,9.0,73,0.00,,,0.00,,2013-01-24 02:02:00,
2013-01-23 20:12:00,23.0,16.0,30.23,NW,308,2.0,9.0,73,0.00,,,0.00,,2013-01-24 02:12:00,
2013-01-23 20:22:00,22.0,15.0,30.23,NW,321,3.0,7.0,74,0.00,,,0.00,,2013-01-24 02:22:00,
2013-01-23 20:33:00,22.0,15.0,30.23,NNW,327,4.0,10.0,73,0.00,,,0.00,,2013-01-24 02:33:00,
2013-01-23 20:42:00,22.0,15.0,30.23,NNW,327,4.0,10.0,73,0.00,,,0.00,,2013-01-24 02:42:00,
2013-01-23 20:52:00,22.0,15.0,30.23,NNW,327,4.0,10.0,73,0.00,,,0.00,,2013-01-24 02:52:00,
2013-01-23 21:02:00,21.0,14.0,30.25,NW,322,5.0,11.0,75,0.00,,,0.00,,2013-01-24 03:02:00,
2013-01-23 21:12:00,21.0,14.0,30.25,NW,322,5.0,11.0,75,0.00,,,0.00,,2013-01-24 03:12:00,
2013-01-23 21:22:00,22.0,15.0,30.25,NW,313,7.0,15.0,73,0.00,,,0.00,,2013-01-24 03:22:00,
2013-01-23 21:33:00,22.0,15.0,30.25,NW,313,7.0,15.0,73,0.00,,,0.00,,2013-01-24 03:33:00,
2013-01-23 21:43:00,22.0,15.0,30.25,NW,313,7.0,15.0,73,0.00,,,0.00,,2013-01-24 03:43:00,
2013-01-23 21:52:00,21.0,13.0,30.27,NNW,333,10.0,19.0,71,0.00,,,0.00,,2013-01-24 03:52:00,
2013-01-23 22:02:00,21.0,13.0,30.27,NNW,333,10.0,19.0,71,0.00,,,0.00,,2013-01-24 04:02:00,
2013-01-23 22:12:00,21.0,13.0,30.27,NNW,333,10.0,19.0,71,0.00,,,0.00,,2013-01-24 04:12:00,
2013-01-23 22:22:00,19.0,11.0,30.29,NW,317,11.0,21.0,70,0.00,,,0.00,,2013-01-24 04:22:00,
2013-01-23 22:32:00,18.0,10.0,30.30,NW,322,12.0,22.0,70,0.00,,,0.00,,2013-01-24 04:32:00,
2013-01-23 22:42:00,18.0,10.0,30.30,NW,322,12.0,22.0,70,0.00,,,0.00,,2013-01-24 04:42:00,
2013-01-23 22:52:00,18.0,9.0,30.31,NW,314,10.0,18.0,68,0.00,,,0.00,,2013-01-24 04:52:00,
2013-01-23 23:03:00,17.0,8.0,30.32,WNW,297,8.0,17.0,68,0.00,,,0.00,,2013-01-24 05:03:00,
2013-01-23 23:12:00,17.0,8.0,30.32,WNW,297,8.0,17.0,68,0.00,,,0.00,,2013-01-24 05:12:00,
2013-01-23 23:22:00,17.0,9.0,30.34,WNW,295,8.0,18.0,69,0.00,,,0.00,,2013-01-24 05:22:00,
2013-01-23 23:33:00,17.0,9.0,30.35,NNW,348,11.0,18.0,70,0.00,,,0.00,,2013-01-24 05:33:00,
2013-01-23 23:42:00,17.0,9.0,30.35,NNW,348,11.0,18.0,70,0.00,,,0.00,,2013-01-24 05:42:00,
2013-01-23 23:52:00,16.0,8.0,30.36,NNW,329,9.0,17.0,71,0.00,,,0.00,,2013-01-24 05:52:00,